Weather in Gazojak

Turkmenistan     41°11′06″N   61°24′08″E
temp.,
°C
wind,
m/s
gust,
m/s
humid.,
%
clouds,
%
prec.,
mm/h
press.,
hPa
HPBL,
m
12 august, fri
fri1223:00+27ne57230 0.0 1012105
02:00+25nne59300 0.0 1012123
05:00+23nne57370 0.0 1012106
08:00+26ne68300 0.0 1014333
11:00+32ne89200 0.0 10132200
14:00+35ne88150 0.0 10112751
17:00+36ne89140 0.0 10102972
20:00+32ne610150 0.0 1010175
13 august, sat
sat1323:00+29ne714190 0.0 1010241
02:00+26nne611250 0.0 1011154
05:00+24nne57290 0.0 101194
08:00+27ne59250 0.0 1012310
11:00+33ne89190 0.0 10112335
14:00+36ne99150 0.0 10092788
17:00+37ne910130 0.0 10073146
20:00+33ne712160 0.0 1007217
14 august, sun
sun1423:00+30ne613210 0.0 1008218
02:00+28ne613230 0.0 1007179
05:00+26ne57270 0.0 100884
08:00+28nne69240 0.0 1009322
11:00+35nne79170 0.0 10082771
14:00+37nne88130 0.0 10063132
17:00+37n87120 0.0 10053382
20:00+33n610150 0.0 1005162
15 august, mon
mon1523:00+29nnw711170 0.0 1006174
02:00+27n59250 0.0 1005112
05:00+26n57250 0.0 100585
08:00+28nne68230 0.0 1007253
11:00+35nne67160 0.0 10072452
14:00+38nne77120 0.0 10053278
17:00+38nne88120 0.0 10053368
20:00+34nne712160 0.0 1006217
16 august, tue
tue1623:00+31nne714200 0.0 1007247
02:00+29nne714240 0.0 1008258
05:00+26nne713280 0.0 1009234
08:00+28nne812250 0.0 1010402
11:00+34nne89170 0.0 10101794
14:00+37nne88130 0.0 10092587
17:00+37nne99110 0.0 10082932
20:00+33nne713150 0.0 1009238